Time,TemperatureF,DewpointF,PressureIn,WindDirection,WindDirectionDegrees,WindSpeedMPH,WindSpeedGustMPH,Humidity,HourlyPrecipIn,Conditions,Clouds,dailyrainin,SoftwareType,DateUTC
2013-01-20 00:04:00,24.9,21.0,29.50,NE,45,6.7,9.1,85,0.00,,,0.00,WUHU216HW,2013-01-20 09:04:00,
2013-01-20 00:09:00,24.9,21.0,29.50,North,0,7.6,7.6,85,0.00,,,0.00,WUHU216HW,2013-01-20 09:09:00,
2013-01-20 00:14:00,24.9,21.0,29.50,NNE,23,8.5,8.5,85,0.00,,,0.00,WUHU216HW,2013-01-20 09:14:00,
2013-01-20 00:19:00,24.9,21.0,29.49,NE,45,9.6,9.6,85,0.00,,,0.00,WUHU216HW,2013-01-20 09:19:00,
2013-01-20 00:24:00,24.9,21.0,29.49,NNE,23,2.9,9.6,85,0.00,,,0.00,WUHU216HW,2013-01-20 09:24:00,
2013-01-20 00:29:00,24.9,21.0,29.49,NNE,23,7.3,9.6,85,0.00,,,0.00,WUHU216HW,2013-01-20 09:29:00,
2013-01-20 00:34:00,24.9,21.3,29.49,NNE,23,0.2,7.3,86,0.00,,,0.00,WUHU216HW,2013-01-20 09:34:00,
2013-01-20 00:39:00,24.9,21.3,29.50,NE,45,8.2,8.2,86,0.00,,,0.00,WUHU216HW,2013-01-20 09:39:00,
2013-01-20 00:44:00,25.1,21.5,29.50,NE,45,6.7,8.2,86,0.00,,,0.00,WUHU216HW,2013-01-20 09:44:00,
2013-01-20 00:49:00,25.1,21.5,29.49,North,0,4.2,14.0,86,0.00,,,0.00,WUHU216HW,2013-01-20 09:49:00,
2013-01-20 00:54:00,25.3,21.7,29.49,NNE,23,4.9,14.0,86,0.00,,,0.00,WUHU216HW,2013-01-20 09:54:00,
2013-01-20 00:59:00,25.3,21.7,29.49,NNE,23,9.3,12.0,86,0.00,,,0.00,WUHU216HW,2013-01-20 09:59:00,
2013-01-20 01:04:00,25.3,21.7,29.49,NE,45,9.1,12.0,86,0.00,,,0.00,WUHU216HW,2013-01-20 10:04:00,
2013-01-20 01:09:00,25.3,21.9,29.49,North,0,6.7,18.5,87,0.00,,,0.00,WUHU216HW,2013-01-20 10:09:00,
2013-01-20 01:14:00,25.3,21.9,29.48,North,0,11.6,18.5,87,0.00,,,0.00,WUHU216HW,2013-01-20 10:14:00,
2013-01-20 01:19:00,25.5,22.1,29.48,NNE,23,14.9,14.9,87,0.00,,,0.00,WUHU216HW,2013-01-20 10:19:00,
2013-01-20 01:24:00,25.5,22.1,29.48,North,0,16.1,16.1,87,0.00,,,0.00,WUHU216HW,2013-01-20 10:24:00,
2013-01-20 01:29:00,25.5,22.1,29.48,North,0,3.5,16.1,87,0.00,,,0.00,WUHU216HW,2013-01-20 10:29:00,
2013-01-20 01:34:00,25.5,22.1,29.47,NW,315,6.9,16.1,87,0.00,,,0.00,WUHU216HW,2013-01-20 10:34:00,
2013-01-20 01:39:00,25.5,22.1,29.47,North,0,10.5,10.5,87,0.00,,,0.00,WUHU216HW,2013-01-20 10:39:00,
2013-01-20 01:44:00,25.7,22.3,29.47,North,0,8.5,10.5,87,0.00,,,0.00,WUHU216HW,2013-01-20 10:44:00,
2013-01-20 01:49:00,25.7,22.6,29.47,NNE,23,5.5,10.5,88,0.00,,,0.00,WUHU216HW,2013-01-20 10:49:00,
2013-01-20 01:54:00,25.7,22.6,29.47,NE,45,4.6,7.6,88,0.00,,,0.00,WUHU216HW,2013-01-20 10:54:00,
2013-01-20 01:59:00,25.7,22.6,29.46,North,0,6.2,11.6,88,0.00,,,0.00,WUHU216HW,2013-01-20 10:59:00,
2013-01-20 02:04:00,25.7,22.6,29.46,North,0,10.7,11.6,88,0.00,,,0.00,WUHU216HW,2013-01-20 11:04:00,
2013-01-20 02:09:00,25.8,22.7,29.47,NNE,23,5.8,10.7,88,0.00,,,0.00,WUHU216HW,2013-01-20 11:09:00,
2013-01-20 02:14:00,25.8,22.7,29.47,NNE,23,6.4,10.7,88,0.00,,,0.00,WUHU216HW,2013-01-20 11:14:00,
2013-01-20 02:19:00,25.8,22.7,29.47,NE,45,3.5,14.9,88,0.00,,,0.00,WUHU216HW,2013-01-20 11:19:00,
2013-01-20 02:24:00,25.8,22.7,29.46,North,0,6.7,14.9,88,0.00,,,0.00,WUHU216HW,2013-01-20 11:24:00,
2013-01-20 02:29:00,25.8,22.7,29.47,NNE,23,3.5,8.2,88,0.00,,,0.00,WUHU216HW,2013-01-20 11:29:00,
2013-01-20 02:34:00,25.8,22.7,29.47,NNE,23,3.3,7.3,88,0.00,,,0.00,WUHU216HW,2013-01-20 11:34:00,
2013-01-20 02:39:00,25.8,22.7,29.47,NNE,23,2.4,7.3,88,0.00,,,0.00,WUHU216HW,2013-01-20 11:39:00,
2013-01-20 02:44:00,25.8,22.7,29.46,NNE,23,8.5,8.5,88,0.00,,,0.00,WUHU216HW,2013-01-20 11:44:00,
2013-01-20 02:49:00,26.0,22.9,29.45,North,0,7.3,8.5,88,0.00,,,0.00,WUHU216HW,2013-01-20 11:49:00,
2013-01-20 02:54:00,26.0,22.9,29.45,North,0,6.7,7.3,88,0.00,,,0.00,WUHU216HW,2013-01-20 11:54:00,
2013-01-20 02:59:00,26.0,22.9,29.45,NNE,23,1.5,7.3,88,0.00,,,0.00,WUHU216HW,2013-01-20 11:59:00,
2013-01-20 03:04:00,26.2,23.1,29.45,NNE,23,2.9,2.9,88,0.00,,,0.00,WUHU216HW,2013-01-20 12:04:00,
2013-01-20 03:09:00,26.2,23.1,29.45,North,0,1.1,2.9,88,0.00,,,0.00,WUHU216HW,2013-01-20 12:09:00,
2013-01-20 03:14:00,26.2,23.1,29.45,NNE,23,0.0,2.9,88,0.00,,,0.00,WUHU216HW,2013-01-20 12:14:00,
2013-01-20 03:19:00,26.2,23.1,29.45,NNW,338,0.0,0.0,88,0.00,,,0.00,WUHU216HW,2013-01-20 12:19:00,
2013-01-20 03:24:00,26.2,23.1,29.44,WNW,293,0.0,0.0,88,0.00,,,0.00,WUHU216HW,2013-01-20 12:24:00,
2013-01-20 03:29:00,26.2,23.1,29.44,North,0,0.0,1.7,88,0.00,,,0.00,WUHU216HW,2013-01-20 12:29:00,
2013-01-20 03:34:00,26.2,23.1,29.44,NNE,23,0.0,1.7,88,0.00,,,0.00,WUHU216HW,2013-01-20 12:34:00,
2013-01-20 03:39:00,26.4,23.3,29.44,NNE,23,4.0,4.0,88,0.00,,,0.00,WUHU216HW,2013-01-20 12:39:00,
2013-01-20 03:44:00,26.4,23.3,29.44,North,0,0.0,4.0,88,0.00,,,0.00,WUHU216HW,2013-01-20 12:44:00,
2013-01-20 03:49:00,26.4,23.3,29.44,North,0,2.9,2.9,88,0.00,,,0.00,WUHU216HW,2013-01-20 12:49:00,
2013-01-20 03:54:00,26.6,23.5,29.44,NNE,23,0.0,3.5,88,0.00,,,0.00,WUHU216HW,2013-01-20 12:54:00,
2013-01-20 03:59:00,26.6,23.5,29.44,North,0,0.0,3.5,88,0.00,,,0.00,WUHU216HW,2013-01-20 12:59:00,
2013-01-20 04:04:00,26.7,23.6,29.45,North,0,0.0,1.1,88,0.00,,,0.00,WUHU216HW,2013-01-20 13:04:00,
2013-01-20 04:09:00,26.9,23.8,29.44,NNE,23,0.0,0.0,88,0.00,,,0.00,WUHU216HW,2013-01-20 13:09:00,
2013-01-20 04:14:00,26.9,23.8,29.44,NNE,23,0.0,0.0,88,0.00,,,0.00,WUHU216HW,2013-01-20 13:14:00,
2013-01-20 04:19:00,27.1,24.0,29.44,North,0,3.3,4.4,88,0.00,,,0.00,WUHU216HW,2013-01-20 13:19:00,
2013-01-20 04:24:00,27.1,24.0,29.44,North,0,10.0,10.0,88,0.00,,,0.00,WUHU216HW,2013-01-20 13:24:00,
2013-01-20 04:29:00,27.3,24.2,29.45,NNE,23,0.0,10.0,88,0.00,,,0.00,WUHU216HW,2013-01-20 13:29:00,
2013-01-20 04:34:00,27.3,24.2,29.44,North,0,0.0,3.8,88,0.00,,,0.00,WUHU216HW,2013-01-20 13:34:00,
2013-01-20 04:39:00,27.3,24.2,29.45,North,0,0.0,8.5,88,0.00,,,0.00,WUHU216HW,2013-01-20 13:39:00,
2013-01-20 04:44:00,27.3,24.2,29.45,North,0,4.2,8.5,88,0.00,,,0.00,WUHU216HW,2013-01-20 13:44:00,
2013-01-20 04:49:00,27.3,24.2,29.45,North,0,2.4,5.5,88,0.00,,,0.00,WUHU216HW,2013-01-20 13:49:00,
2013-01-20 04:54:00,27.1,24.0,29.45,North,0,0.0,5.5,88,0.00,,,0.00,WUHU216HW,2013-01-20 13:54:00,
2013-01-20 04:59:00,27.1,24.0,29.45,NNE,23,0.0,2.4,88,0.00,,,0.00,WUHU216HW,2013-01-20 13:59:00,
2013-01-20 05:04:00,27.1,24.0,29.45,North,0,2.6,2.6,88,0.00,,,0.00,WUHU216HW,2013-01-20 14:04:00,
2013-01-20 05:09:00,27.1,24.0,29.44,North,0,3.8,3.8,88,0.00,,,0.00,WUHU216HW,2013-01-20 14:09:00,
2013-01-20 05:14:00,26.9,23.8,29.45,NNE,23,5.1,6.4,88,0.00,,,0.00,WUHU216HW,2013-01-20 14:14:00,
2013-01-20 05:19:00,26.9,23.8,29.45,North,0,6.9,6.9,88,0.00,,,0.00,WUHU216HW,2013-01-20 14:19:00,
2013-01-20 05:24:00,26.7,23.6,29.45,NNE,23,2.4,6.9,88,0.00,,,0.00,WUHU216HW,2013-01-20 14:24:00,
2013-01-20 05:29:00,26.7,23.6,29.45,North,0,6.9,6.9,88,0.00,,,0.00,WUHU216HW,2013-01-20 14:29:00,
2013-01-20 05:34:00,26.7,23.6,29.45,North,0,5.1,6.9,88,0.00,,,0.00,WUHU216HW,2013-01-20 14:34:00,
2013-01-20 05:39:00,26.7,23.6,29.45,North,0,5.5,5.5,88,0.00,,,0.00,WUHU216HW,2013-01-20 14:39:00,
2013-01-20 05:44:00,26.7,23.6,29.45,North,0,0.0,5.5,88,0.00,,,0.00,WUHU216HW,2013-01-20 14:44:00,
2013-01-20 05:49:00,26.7,23.3,29.45,NNE,23,0.0,4.9,87,0.00,,,0.00,WUHU216HW,2013-01-20 14:49:00,
2013-01-20 05:54:00,26.7,23.3,29.45,NNE,23,0.0,3.8,87,0.00,,,0.00,WUHU216HW,2013-01-20 14:54:00,
2013-01-20 05:59:00,26.6,23.2,29.45,North,0,3.1,3.1,87,0.00,,,0.00,WUHU216HW,2013-01-20 14:59:00,
2013-01-20 06:04:00,26.6,23.2,29.45,NNE,23,0.0,3.1,87,0.00,,,0.00,WUHU216HW,2013-01-20 15:04:00,
2013-01-20 06:09:00,26.4,23.0,29.45,North,0,3.1,3.1,87,0.00,,,0.00,WUHU216HW,2013-01-20 15:09:00,
2013-01-20 06:14:00,26.4,23.0,29.45,NNE,23,1.3,3.1,87,0.00,,,0.00,WUHU216HW,2013-01-20 15:14:00,
2013-01-20 06:19:00,26.4,23.3,29.45,NNE,23,1.3,3.5,88,0.00,,,0.00,WUHU216HW,2013-01-20 15:19:00,
2013-01-20 06:24:00,26.4,23.3,29.45,NNE,23,2.0,3.5,88,0.00,,,0.00,WUHU216HW,2013-01-20 15:24:00,
2013-01-20 06:29:00,26.4,23.3,29.45,ENE,68,0.0,2.0,88,0.00,,,0.00,WUHU216HW,2013-01-20 15:29:00,
2013-01-20 06:34:00,26.4,23.3,29.45,NNE,23,0.2,0.2,88,0.00,,,0.00,WUHU216HW,2013-01-20 15:34:00,
2013-01-20 06:39:00,26.4,23.3,29.44,NNE,23,0.0,6.2,88,0.00,,,0.00,WUHU216HW,2013-01-20 15:39:00,
2013-01-20 06:44:00,26.4,23.3,29.44,NNE,23,3.1,6.2,88,0.00,,,0.00,WUHU216HW,2013-01-20 15:44:00,
2013-01-20 06:49:00,26.4,23.3,29.44,NNE,23,0.0,4.2,88,0.00,,,0.00,WUHU216HW,2013-01-20 15:49:00,
2013-01-20 06:54:00,26.4,23.3,29.45,NE,45,0.0,4.2,88,0.00,,,0.00,WUHU216HW,2013-01-20 15:54:00,
2013-01-20 06:59:00,26.4,23.3,29.45,NE,45,0.0,0.0,88,0.00,,,0.00,WUHU216HW,2013-01-20 15:59:00,
2013-01-20 07:04:00,26.4,23.3,29.45,NNE,23,1.1,1.7,88,0.00,,,0.00,WUHU216HW,2013-01-20 16:04:00,
2013-01-20 07:09:00,26.4,23.3,29.44,NE,45,0.0,3.5,88,0.00,,,0.00,WUHU216HW,2013-01-20 16:09:00,
2013-01-20 07:14:00,26.4,23.3,29.45,NNE,23,0.0,7.1,88,0.00,,,0.00,WUHU216HW,2013-01-20 16:14:00,
2013-01-20 07:19:00,26.6,23.5,29.44,NNE,23,0.0,7.1,88,0.00,,,0.00,WUHU216HW,2013-01-20 16:19:00,
2013-01-20 07:24:00,26.6,23.5,29.45,NNE,23,0.0,1.5,88,0.00,,,0.00,WUHU216HW,2013-01-20 16:24:00,
2013-01-20 07:29:00,26.6,23.5,29.45,NNE,23,0.0,0.0,88,0.00,,,0.00,WUHU216HW,2013-01-20 16:29:00,
2013-01-20 07:34:00,26.7,23.6,29.45,North,0,1.7,1.7,88,0.00,,,0.00,WUHU216HW,2013-01-20 16:34:00,
2013-01-20 07:40:00,26.7,23.6,29.45,NNE,23,3.8,3.8,88,0.00,,,0.00,WUHU216HW,2013-01-20 16:40:00,
2013-01-20 07:45:00,26.7,23.6,29.45,NNE,23,0.2,3.8,88,0.00,,,0.00,WUHU216HW,2013-01-20 16:45:00,
2013-01-20 07:50:00,26.7,23.6,29.45,NNE,23,0.0,2.6,88,0.00,,,0.00,WUHU216HW,2013-01-20 16:50:00,
2013-01-20 07:55:00,26.7,23.6,29.45,North,0,0.0,3.5,88,0.00,,,0.00,WUHU216HW,2013-01-20 16:55:00,
2013-01-20 08:01:00,26.9,23.8,29.45,NNE,23,3.3,3.5,88,0.00,,,0.00,WUHU216HW,2013-01-20 17:01:00,
2013-01-20 08:06:00,26.9,23.8,29.46,NNE,23,0.0,3.3,88,0.00,,,0.00,WUHU216HW,2013-01-20 17:06:00,
2013-01-20 08:11:00,26.9,23.8,29.45,NNE,23,0.0,3.3,88,0.00,,,0.00,WUHU216HW,2013-01-20 17:11:00,
2013-01-20 08:16:00,27.1,24.0,29.45,NNE,23,0.0,3.3,88,0.00,,,0.00,WUHU216HW,2013-01-20 17:16:00,
2013-01-20 08:21:00,27.1,24.0,29.46,North,0,0.0,1.5,88,0.00,,,0.00,WUHU216HW,2013-01-20 17:21:00,
2013-01-20 08:26:00,27.1,24.0,29.46,NNE,23,2.2,2.2,88,0.00,,,0.00,WUHU216HW,2013-01-20 17:26:00,
2013-01-20 08:31:00,27.3,24.2,29.45,NNE,23,0.0,6.0,88,0.00,,,0.00,WUHU216HW,2013-01-20 17:31:00,
2013-01-20 08:36:00,27.3,24.2,29.45,NNE,23,0.0,6.0,88,0.00,,,0.00,WUHU216HW,2013-01-20 17:36:00,
2013-01-20 08:41:00,27.5,24.6,29.46,NNE,23,1.3,1.3,89,0.00,,,0.00,WUHU216HW,2013-01-20 17:41:00,
2013-01-20 08:46:00,27.5,24.6,29.45,NNE,23,0.0,1.3,89,0.00,,,0.00,WUHU216HW,2013-01-20 17:46:00,
2013-01-20 08:51:00,27.6,24.8,29.45,NNE,23,5.1,5.1,89,0.00,,,0.00,WUHU216HW,2013-01-20 17:51:00,
2013-01-20 08:56:00,27.6,24.8,29.45,NNE,23,4.0,5.1,89,0.00,,,0.00,WUHU216HW,2013-01-20 17:56:00,
2013-01-20 09:01:00,27.6,24.8,29.45,NNE,23,3.8,5.1,89,0.00,,,0.00,WUHU216HW,2013-01-20 18:01:00,
2013-01-20 09:06:00,27.8,25.0,29.45,NNE,23,0.0,4.4,89,0.00,,,0.00,WUHU216HW,2013-01-20 18:06:00,
2013-01-20 09:11:00,28.0,25.2,29.45,NE,45,0.0,4.6,89,0.00,,,0.00,WUHU216HW,2013-01-20 18:11:00,
2013-01-20 09:16:00,28.0,25.2,29.45,North,0,2.4,4.6,89,0.00,,,0.00,WUHU216HW,2013-01-20 18:16:00,
2013-01-20 09:21:00,28.0,25.2,29.46,NE,45,0.0,2.4,89,0.00,,,0.00,WUHU216HW,2013-01-20 18:21:00,
2013-01-20 09:26:00,28.0,25.2,29.46,NNE,23,0.0,1.3,89,0.00,,,0.00,WUHU216HW,2013-01-20 18:26:00,
2013-01-20 09:31:00,28.0,25.2,29.45,NE,45,0.0,0.0,89,0.00,,,0.00,WUHU216HW,2013-01-20 18:31:00,
2013-01-20 09:36:00,28.2,25.4,29.45,NE,45,0.0,2.0,89,0.00,,,0.00,WUHU216HW,2013-01-20 18:36:00,
2013-01-20 09:42:00,28.2,25.4,29.46,NE,45,0.0,2.0,89,0.00,,,0.00,WUHU216HW,2013-01-20 18:42:00,
2013-01-20 09:47:00,28.2,25.4,29.45,NE,45,0.0,0.8,89,0.00,,,0.00,WUHU216HW,2013-01-20 18:47:00,
2013-01-20 09:52:00,28.2,25.4,29.46,NE,45,0.0,0.0,89,0.00,,,0.00,WUHU216HW,2013-01-20 18:52:00,
2013-01-20 09:57:00,28.2,25.4,29.46,NNE,23,0.0,0.0,89,0.00,,,0.00,WUHU216HW,2013-01-20 18:57:00,
2013-01-20 10:02:00,28.5,26.0,29.46,NE,45,0.0,0.0,90,0.00,,,0.00,WUHU216HW,2013-01-20 19:02:00,
2013-01-20 10:07:00,28.5,26.0,29.45,NNE,23,0.0,0.0,90,0.00,,,0.00,WUHU216HW,2013-01-20 19:07:00,
2013-01-20 10:12:00,28.5,26.0,29.46,NE,45,0.0,0.0,90,0.00,,,0.00,WUHU216HW,2013-01-20 19:12:00,
2013-01-20 10:17:00,28.5,26.0,29.46,NNE,23,0.0,0.0,90,0.00,,,0.00,WUHU216HW,2013-01-20 19:17:00,
2013-01-20 10:22:00,28.7,26.2,29.45,NNE,23,0.0,0.0,90,0.00,,,0.00,WUHU216HW,2013-01-20 19:22:00,
2013-01-20 10:27:00,28.7,26.2,29.45,NNE,23,0.0,0.4,90,0.00,,,0.00,WUHU216HW,2013-01-20 19:27:00,
2013-01-20 10:32:00,28.7,26.2,29.45,NNE,23,1.3,1.3,90,0.00,,,0.00,WUHU216HW,2013-01-20 19:32:00,
2013-01-20 10:37:00,28.9,26.4,29.45,NE,45,0.0,1.3,90,0.00,,,0.00,WUHU216HW,2013-01-20 19:37:00,
2013-01-20 10:42:00,29.1,26.6,29.45,NNE,23,0.0,4.2,90,0.00,,,0.00,WUHU216HW,2013-01-20 19:42:00,
2013-01-20 10:47:00,29.1,26.6,29.45,NNE,23,0.0,4.2,90,0.00,,,0.00,WUHU216HW,2013-01-20 19:47:00,
2013-01-20 10:52:00,29.1,26.6,29.45,NNE,23,0.0,0.0,90,0.00,,,0.00,WUHU216HW,2013-01-20 19:52:00,
2013-01-20 10:57:00,29.3,26.7,29.45,NNE,23,0.8,0.8,90,0.00,,,0.00,WUHU216HW,2013-01-20 19:57:00,
2013-01-20 11:02:00,29.4,26.9,29.45,NNE,23,5.8,5.8,90,0.00,,,0.00,WUHU216HW,2013-01-20 20:02:00,
2013-01-20 11:07:00,29.6,27.1,29.45,North,0,0.0,5.8,90,0.00,,,0.00,WUHU216HW,2013-01-20 20:07:00,
2013-01-20 11:12:00,30.0,27.7,29.45,NNE,23,1.1,5.8,91,0.00,,,0.00,WUHU216HW,2013-01-20 20:12:00,
2013-01-20 11:17:00,30.0,27.5,29.45,NNE,23,0.0,2.6,90,0.00,,,0.00,WUHU216HW,2013-01-20 20:17:00,
2013-01-20 11:22:00,30.3,27.8,29.45,NNE,23,0.0,1.1,90,0.00,,,0.00,WUHU216HW,2013-01-20 20:22:00,
2013-01-20 11:27:00,30.3,27.8,29.45,NE,45,0.0,0.0,90,0.00,,,0.00,WUHU216HW,2013-01-20 20:27:00,
2013-01-20 11:32:00,30.5,28.0,29.45,NNE,23,0.0,2.0,90,0.00,,,0.00,WUHU216HW,2013-01-20 20:32:00,
2013-01-20 11:37:00,30.5,28.0,29.45,NNE,23,0.0,2.0,90,0.00,,,0.00,WUHU216HW,2013-01-20 20:37:00,
2013-01-20 11:42:00,30.5,28.0,29.45,NNE,23,2.0,2.6,90,0.00,,,0.00,WUHU216HW,2013-01-20 20:42:00,
2013-01-20 11:47:00,30.7,28.2,29.45,NE,45,0.0,2.6,90,0.00,,,0.00,WUHU216HW,2013-01-20 20:47:00,
2013-01-20 11:52:00,30.7,28.2,29.45,NNE,23,0.0,2.0,90,0.00,,,0.00,WUHU216HW,2013-01-20 20:52:00,
2013-01-20 11:57:00,30.9,28.4,29.45,NNE,23,5.5,5.5,90,0.00,,,0.00,WUHU216HW,2013-01-20 20:57:00,
2013-01-20 12:02:00,31.1,28.5,29.45,NNE,23,0.0,5.5,90,0.00,,,0.00,WUHU216HW,2013-01-20 21:02:00,
2013-01-20 12:07:00,31.2,28.7,29.45,NNE,23,1.5,5.5,90,0.00,,,0.00,WUHU216HW,2013-01-20 21:07:00,
2013-01-20 12:12:00,31.2,28.7,29.45,North,0,3.3,6.2,90,0.00,,,0.00,WUHU216HW,2013-01-20 21:12:00,
2013-01-20 12:17:00,31.1,28.7,29.45,North,0,0.0,6.2,90,0.00,,,0.00,WUHU216HW,2013-01-20 21:17:00,
2013-01-20 12:22:00,31.1,28.5,29.45,North,0,7.1,7.8,90,0.00,,,0.00,WUHU216HW,2013-01-20 21:22:00,
2013-01-20 12:27:00,31.1,28.5,29.45,NE,45,2.6,7.8,90,0.00,,,0.00,WUHU216HW,2013-01-20 21:27:00,
2013-01-20 12:32:00,30.9,28.4,29.45,North,0,7.3,7.3,90,0.00,,,0.00,WUHU216HW,2013-01-20 21:32:00,
2013-01-20 12:37:00,30.7,28.2,29.45,NNE,23,4.9,7.3,90,0.00,,,0.00,WUHU216HW,2013-01-20 21:37:00,
2013-01-20 12:42:00,30.7,28.2,29.45,NNE,23,0.0,6.4,90,0.00,,,0.00,WUHU216HW,2013-01-20 21:42:00,
2013-01-20 12:48:00,30.7,27.9,29.45,NNE,23,6.9,10.0,89,0.00,,,0.00,WUHU216HW,2013-01-20 21:48:00,
2013-01-20 12:53:00,30.7,27.9,29.45,North,0,9.1,10.0,89,0.00,,,0.00,WUHU216HW,2013-01-20 21:53:00,
2013-01-20 12:58:00,30.7,27.9,29.45,North,0,10.9,10.9,89,0.00,,,0.00,WUHU216HW,2013-01-20 21:58:00,
2013-01-20 13:03:00,30.7,27.9,29.46,NE,45,0.0,10.9,89,0.00,,,0.00,WUHU216HW,2013-01-20 22:03:00,
2013-01-20 13:08:00,30.7,27.9,29.45,NNW,338,0.0,14.0,89,0.00,,,0.00,WUHU216HW,2013-01-20 22:08:00,
2013-01-20 13:13:00,30.7,27.9,29.45,NNE,23,4.0,14.0,89,0.00,,,0.00,WUHU216HW,2013-01-20 22:13:00,
2013-01-20 13:18:00,30.7,27.9,29.46,North,0,5.1,7.8,89,0.00,,,0.00,WUHU216HW,2013-01-20 22:18:00,
2013-01-20 13:23:00,30.9,28.1,29.45,North,0,3.5,7.8,89,0.00,,,0.00,WUHU216HW,2013-01-20 22:23:00,
2013-01-20 13:28:00,30.9,28.1,29.45,North,0,8.7,10.0,89,0.00,,,0.00,WUHU216HW,2013-01-20 22:28:00,
2013-01-20 13:33:00,30.9,28.1,29.45,NNE,23,8.0,10.0,89,0.00,,,0.00,WUHU216HW,2013-01-20 22:33:00,
2013-01-20 13:38:00,30.9,28.1,29.45,North,0,6.7,9.3,89,0.00,,,0.00,WUHU216HW,2013-01-20 22:38:00,
2013-01-20 13:43:00,31.1,28.2,29.45,NNE,23,1.3,11.8,89,0.00,,,0.00,WUHU216HW,2013-01-20 22:43:00,
2013-01-20 13:48:00,31.1,28.2,29.45,NNE,23,0.0,11.8,89,0.00,,,0.00,WUHU216HW,2013-01-20 22:48:00,
2013-01-20 13:53:00,31.2,28.4,29.45,NNE,23,4.2,6.4,89,0.00,,,0.00,WUHU216HW,2013-01-20 22:53:00,
2013-01-20 13:58:00,31.4,28.3,29.45,NNE,23,6.0,6.4,88,0.00,,,0.00,WUHU216HW,2013-01-20 22:58:00,
2013-01-20 14:03:00,31.6,28.5,29.45,North,0,10.5,10.5,88,0.00,,,0.00,WUHU216HW,2013-01-20 23:03:00,
2013-01-20 14:08:00,31.6,28.5,29.45,NNE,23,3.5,16.5,88,0.00,,,0.00,WUHU216HW,2013-01-20 23:08:00,
2013-01-20 14:13:00,31.6,28.5,29.45,North,0,0.0,16.5,88,0.00,,,0.00,WUHU216HW,2013-01-20 23:13:00,
2013-01-20 14:18:00,31.6,28.5,29.45,North,0,6.4,6.4,88,0.00,,,0.00,WUHU216HW,2013-01-20 23:18:00,
2013-01-20 14:23:00,31.6,28.5,29.45,North,0,5.1,6.9,88,0.00,,,0.00,WUHU216HW,2013-01-20 23:23:00,
2013-01-20 14:28:00,31.6,28.5,29.45,North,0,6.4,6.9,88,0.00,,,0.00,WUHU216HW,2013-01-20 23:28:00,
2013-01-20 14:33:00,31.6,28.5,29.44,NNE,23,3.5,9.1,88,0.00,,,0.00,WUHU216HW,2013-01-20 23:33:00,
2013-01-20 14:38:00,31.6,28.5,29.44,NNE,23,5.5,9.1,88,0.00,,,0.00,WUHU216HW,2013-01-20 23:38:00,
2013-01-20 14:43:00,31.6,28.5,29.44,NNE,23,5.3,10.9,88,0.00,,,0.00,WUHU216HW,2013-01-20 23:43:00,
2013-01-20 14:49:00,31.2,27.8,29.44,NNE,23,6.0,10.9,87,0.00,,,0.00,WUHU216HW,2013-01-20 23:49:00,
2013-01-20 14:54:00,31.2,27.8,29.43,North,0,6.4,7.8,87,0.00,,,0.00,WUHU216HW,2013-01-20 23:54:00,
2013-01-20 14:59:00,31.1,27.7,29.44,North,0,13.1,13.1,87,0.00,,,0.00,WUHU216HW,2013-01-20 23:59:00,
2013-01-20 15:04:00,31.1,27.7,29.43,NE,45,3.3,13.1,87,0.00,,,0.00,WUHU216HW,2013-01-21 00:04:00,
2013-01-20 15:09:00,30.9,27.5,29.43,North,0,0.0,13.1,87,0.00,,,0.00,WUHU216HW,2013-01-21 00:09:00,
2013-01-20 15:14:00,30.7,27.3,29.43,North,0,6.9,6.9,87,0.00,,,0.00,WUHU216HW,2013-01-21 00:14:00,
2013-01-20 15:19:00,30.7,27.6,29.43,NNE,23,0.0,6.9,88,0.00,,,0.00,WUHU216HW,2013-01-21 00:19:00,
2013-01-20 15:24:00,30.7,27.6,29.43,NE,45,0.0,6.9,88,0.00,,,0.00,WUHU216HW,2013-01-21 00:24:00,
2013-01-20 15:29:00,30.5,27.4,29.43,NE,45,0.8,1.5,88,0.00,,,0.00,WUHU216HW,2013-01-21 00:29:00,
2013-01-20 15:34:00,30.5,27.4,29.43,NNE,23,0.0,0.8,88,0.00,,,0.00,WUHU216HW,2013-01-21 00:34:00,
2013-01-20 15:40:00,30.5,27.4,29.43,North,0,0.0,2.6,88,0.00,,,0.00,WUHU216HW,2013-01-21 00:40:00,
2013-01-20 15:45:00,30.3,27.2,29.43,North,0,0.0,2.6,88,0.00,,,0.00,WUHU216HW,2013-01-21 00:45:00,
2013-01-20 15:50:00,30.3,27.2,29.43,NNE,23,5.1,5.1,88,0.00,,,0.00,WUHU216HW,2013-01-21 00:50:00,
2013-01-20 15:55:00,30.0,26.9,29.44,NNE,23,0.0,8.5,88,0.00,,,0.00,WUHU216HW,2013-01-21 00:55:00,
2013-01-20 16:00:00,30.0,26.9,29.44,NNE,23,0.0,8.5,88,0.00,,,0.00,WUHU216HW,2013-01-21 01:00:00,
2013-01-20 16:05:00,30.0,26.9,29.44,NNE,23,0.0,1.5,88,0.00,,,0.00,WUHU216HW,2013-01-21 01:05:00,
2013-01-20 16:10:00,29.8,26.7,29.44,North,0,0.0,1.5,88,0.00,,,0.00,WUHU216HW,2013-01-21 01:10:00,
2013-01-20 16:15:00,29.8,26.7,29.45,NNE,23,0.6,0.6,88,0.00,,,0.00,WUHU216HW,2013-01-21 01:15:00,
2013-01-20 16:20:00,29.8,26.7,29.45,NNE,23,0.0,0.6,88,0.00,,,0.00,WUHU216HW,2013-01-21 01:20:00,
2013-01-20 16:25:00,29.8,26.7,29.44,North,0,0.0,0.6,88,0.00,,,0.00,WUHU216HW,2013-01-21 01:25:00,
2013-01-20 16:30:00,29.6,26.5,29.45,NNE,23,0.0,0.0,88,0.00,,,0.00,WUHU216HW,2013-01-21 01:30:00,
2013-01-20 16:35:00,29.6,26.5,29.45,NNE,23,3.3,3.3,88,0.00,,,0.00,WUHU216HW,2013-01-21 01:35:00,
2013-01-20 16:40:00,29.4,26.3,29.45,NNE,23,0.0,5.1,88,0.00,,,0.00,WUHU216HW,2013-01-21 01:40:00,
2013-01-20 16:45:00,29.4,26.3,29.45,NNE,23,0.0,5.1,88,0.00,,,0.00,WUHU216HW,2013-01-21 01:45:00,
2013-01-20 16:50:00,29.4,26.6,29.45,North,0,0.8,0.8,89,0.00,,,0.00,WUHU216HW,2013-01-21 01:50:00,
2013-01-20 16:55:00,29.3,26.4,29.46,North,0,0.0,0.8,89,0.00,,,0.00,WUHU216HW,2013-01-21 01:55:00,
2013-01-20 17:00:00,29.3,26.4,29.46,NNE,23,3.8,3.8,89,0.00,,,0.00,WUHU216HW,2013-01-21 02:00:00,
2013-01-20 17:05:00,29.1,26.3,29.45,NNE,23,2.2,7.8,89,0.00,,,0.00,WUHU216HW,2013-01-21 02:05:00,
2013-01-20 17:10:00,29.1,26.3,29.45,North,0,1.3,7.8,89,0.00,,,0.00,WUHU216HW,2013-01-21 02:10:00,
2013-01-20 17:15:00,29.1,26.3,29.46,North,0,0.0,2.9,89,0.00,,,0.00,WUHU216HW,2013-01-21 02:15:00,
2013-01-20 17:20:00,29.1,26.3,29.46,NNE,23,0.0,1.3,89,0.00,,,0.00,WUHU216HW,2013-01-21 02:20:00,
2013-01-20 17:25:00,28.9,26.1,29.46,North,0,6.9,6.9,89,0.00,,,0.00,WUHU216HW,2013-01-21 02:25:00,
2013-01-20 17:30:00,28.9,26.1,29.46,North,0,0.0,6.9,89,0.00,,,0.00,WUHU216HW,2013-01-21 02:30:00,
2013-01-20 17:35:00,28.9,26.1,29.47,NNE,23,0.0,6.9,89,0.00,,,0.00,WUHU216HW,2013-01-21 02:35:00,
2013-01-20 17:40:00,28.7,25.9,29.46,North,0,2.6,2.6,89,0.00,,,0.00,WUHU216HW,2013-01-21 02:40:00,
2013-01-20 17:45:00,28.7,25.9,29.47,NE,45,0.0,2.6,89,0.00,,,0.00,WUHU216HW,2013-01-21 02:45:00,
2013-01-20 17:50:00,28.7,26.2,29.47,NNE,23,3.5,3.5,90,0.00,,,0.00,WUHU216HW,2013-01-21 02:50:00,
2013-01-20 17:55:00,28.5,26.0,29.47,NNE,23,0.0,3.5,90,0.00,,,0.00,WUHU216HW,2013-01-21 02:55:00,
2013-01-20 18:00:00,28.5,26.0,29.46,NNE,23,0.0,2.2,90,0.00,,,0.00,WUHU216HW,2013-01-21 03:00:00,
2013-01-20 18:05:00,28.5,26.0,29.46,NNE,23,6.2,6.2,90,0.00,,,0.00,WUHU216HW,2013-01-21 03:05:00,
2013-01-20 18:10:00,28.5,26.0,29.46,North,0,2.0,8.5,90,0.00,,,0.00,WUHU216HW,2013-01-21 03:10:00,
2013-01-20 18:15:00,28.5,26.0,29.46,North,0,3.8,8.5,90,0.00,,,0.00,WUHU216HW,2013-01-21 03:15:00,
2013-01-20 18:20:00,28.2,25.7,29.46,NNE,23,1.5,6.4,90,0.00,,,0.00,WUHU216HW,2013-01-21 03:20:00,
2013-01-20 18:25:00,28.2,25.7,29.45,NNE,23,8.2,8.2,90,0.00,,,0.00,WUHU216HW,2013-01-21 03:25:00,
2013-01-20 18:30:00,28.2,25.7,29.45,North,0,7.8,8.2,90,0.00,,,0.00,WUHU216HW,2013-01-21 03:30:00,
2013-01-20 18:35:00,28.2,25.7,29.45,NNE,23,6.7,8.2,90,0.00,,,0.00,WUHU216HW,2013-01-21 03:35:00,
2013-01-20 18:40:00,28.2,25.7,29.45,NNE,23,0.6,10.7,90,0.00,,,0.00,WUHU216HW,2013-01-21 03:40:00,
2013-01-20 18:45:00,28.0,25.7,29.46,North,0,6.9,10.7,91,0.00,,,0.00,WUHU216HW,2013-01-21 03:45:00,
2013-01-20 18:50:00,28.0,25.7,29.47,NNE,23,1.1,9.3,91,0.00,,,0.00,WUHU216HW,2013-01-21 03:50:00,
2013-01-20 18:56:00,28.0,25.7,29.46,North,0,2.9,9.3,91,0.00,,,0.00,WUHU216HW,2013-01-21 03:56:00,
2013-01-20 19:01:00,28.0,25.7,29.47,NNE,23,3.3,9.3,91,0.00,,,0.00,WUHU216HW,2013-01-21 04:01:00,
2013-01-20 19:06:00,28.0,25.7,29.47,NNE,23,0.0,9.3,91,0.00,,,0.00,WUHU216HW,2013-01-21 04:06:00,
2013-01-20 19:11:00,27.6,25.4,29.47,NNE,23,3.1,4.9,91,0.00,,,0.00,WUHU216HW,2013-01-21 04:11:00,
2013-01-20 19:16:00,27.6,25.1,29.47,North,0,6.0,6.0,90,0.00,,,0.00,WUHU216HW,2013-01-21 04:16:00,
2013-01-20 19:21:00,27.6,25.1,29.47,North,0,0.0,6.0,90,0.00,,,0.00,WUHU216HW,2013-01-21 04:21:00,
2013-01-20 19:26:00,27.6,25.1,29.47,NE,45,2.9,6.0,90,0.00,,,0.00,WUHU216HW,2013-01-21 04:26:00,
2013-01-20 19:31:00,27.5,24.9,29.47,NNE,23,0.0,5.3,90,0.00,,,0.00,WUHU216HW,2013-01-21 04:31:00,
2013-01-20 19:36:00,27.5,24.9,29.48,NNE,23,2.4,5.1,90,0.00,,,0.00,WUHU216HW,2013-01-21 04:36:00,
2013-01-20 19:41:00,27.5,24.9,29.48,East,90,0.0,5.1,90,0.00,,,0.00,WUHU216HW,2013-01-21 04:41:00,
2013-01-20 19:46:00,27.5,25.2,29.48,NNE,23,0.6,7.6,91,0.00,,,0.00,WUHU216HW,2013-01-21 04:46:00,
2013-01-20 19:51:00,27.5,25.2,29.48,NNE,23,0.0,7.6,91,0.00,,,0.00,WUHU216HW,2013-01-21 04:51:00,
2013-01-20 19:56:00,27.3,25.0,29.48,NE,45,0.0,5.5,91,0.00,,,0.00,WUHU216HW,2013-01-21 04:56:00,
2013-01-20 20:01:00,27.3,25.0,29.47,NE,45,0.0,2.2,91,0.00,,,0.00,WUHU216HW,2013-01-21 05:01:00,
2013-01-20 20:03:00,27.3,25.0,29.47,NE,45,0.0,2.2,91,0.00,,,0.00,WUHU216HW,2013-01-21 05:03:00,
2013-01-20 20:08:00,27.3,24.8,29.48,NE,45,0.0,0.0,90,0.00,,,0.00,WUHU216HW,2013-01-21 05:08:00,
2013-01-20 20:13:00,27.1,24.6,29.48,NE,45,0.0,0.0,90,0.00,,,0.00,WUHU216HW,2013-01-21 05:13:00,
2013-01-20 20:18:00,27.1,24.6,29.48,NE,45,0.0,0.0,90,0.00,,,0.00,WUHU216HW,2013-01-21 05:18:00,
2013-01-20 20:23:00,26.9,24.4,29.47,NE,45,0.0,0.0,90,0.00,,,0.00,WUHU216HW,2013-01-21 05:23:00,
2013-01-20 20:28:00,26.6,24.0,29.47,NE,45,0.0,0.0,90,0.00,,,0.00,WUHU216HW,2013-01-21 05:28:00,
2013-01-20 20:33:00,26.2,23.7,29.48,NE,45,0.0,0.0,90,0.00,,,0.00,WUHU216HW,2013-01-21 05:33:00,
2013-01-20 20:39:00,25.8,23.3,29.47,NE,45,0.0,0.0,90,0.00,,,0.00,WUHU216HW,2013-01-21 05:39:00,
2013-01-20 20:44:00,25.7,23.0,29.47,NE,45,0.0,0.0,90,0.00,,,0.00,WUHU216HW,2013-01-21 05:44:00,
2013-01-20 20:49:00,25.3,22.8,29.47,NE,45,0.0,0.0,90,0.00,,,0.00,WUHU216HW,2013-01-21 05:49:00,
2013-01-20 20:54:00,25.1,22.6,29.47,NE,45,0.0,0.0,90,0.00,,,0.00,WUHU216HW,2013-01-21 05:54:00,
2013-01-20 20:59:00,24.6,21.8,29.47,NE,45,0.0,0.0,89,0.00,,,0.00,WUHU216HW,2013-01-21 05:59:00,
2013-01-20 21:04:00,24.4,21.6,29.47,NE,45,0.0,0.0,89,0.00,,,0.00,WUHU216HW,2013-01-21 06:04:00,